Regional Weather Roundup
Issued by NWS

Home | Current Version | Previous Version | Text Only | Print | Product List | Glossary Off
Versions: 1 2 3 4 5 6 7 8 9 10 11 12 13 14 15 16 17 18 19 20 21 22 23 24 25 26 27 28 29 30 31 32 33 34 35 36 37 38 39 40 41 42 43 44 45 46 47 48 49 50

000
ASUS43 KMPX 191701
RWRMN
WEATHER ROUNDUP FOR MINNESOTA
NATIONAL WEATHER SERVICE TWIN CITIES/CHANHASSEN MN
1200 PM CDT FRI SEP 19 2014


NOTE: "FAIR" INDICATES FEW OR NO CLOUDS BELOW 12,000 FEET WITH NO
SIGNIFICANT WEATHER AND/OR OBSTRUCTIONS TO VISIBILITY. N/A MEANS
CURRENT SKY AND/OR WEATHER CONDITIONS ARE NOT AVAILABLE.

MNZ060>063-068>070-191800-
   Twin Cities Metro

CITY           SKY/WX    TMP DP  RH WIND       PRES   REMARKS
TWIN CITIES    PTSUNNY   71  58  63 S25G32    29.76F
ST PAUL        PTSUNNY   70  59  68 S23G33    29.77F
CRYSTAL        PTSUNNY   72  58  61 S14G30    29.73F
BLAINE         CLOUDY    72  61  68 S21G28      N/A
LAKEVILLE      PTSUNNY   70  59  68 S14G28    29.77F
EDEN PRAIRIE   MOSUNNY   73  60  63 S24G31    29.74F
SOUTH ST PAUL  PTSUNNY   71  58  62 S17G25    29.77F
LAKE ELMO      FAIR      70  59  68 S20       29.79F
$$
MNZ001>005-007-008-013>017-022>024-027-028-191800-
   Northwest Minnesota

CITY           SKY/WX    TMP DP  RH WIND       PRES   REMARKS
BEMIDJI        RAIN      61  59  92 SW9       29.64S
HALLOCK        LGT RAIN  64  63  94 S10       29.50F
ROSEAU         CLOUDY    63  57  82 SW16      29.54F
WARROAD        RAIN      63  59  88 SW15G22   29.55R
THIEF RVR FALL CLOUDY    63  61  94 SW16G22   29.59R
CROOKSTON      CLOUDY    63  63 100 SW12G17   29.60R
FOSSTON        LGT RAIN  61  57  88 S18       29.62F
DETROIT LAKES  CLOUDY    63  59  88 S13       29.67F
MOORHEAD       LGT RAIN  66  64  94 S9        29.63S
PARK RAPIDS    LGT RAIN  62  59  90 S9        29.68S
MAHNOMEN       CLOUDY    62  59  91 S14       29.64R
$$
MNZ006-009>011-018-025>026-191800-
   North Central Minnesota

CITY           SKY/WX    TMP DP  RH WIND       PRES   REMARKS
BAUDETTE       LGT RAIN  62  58  86 S16G23    29.55S
FLAG ISLAND    LGT RAIN  61  57  88 S7        29.53R
INTL FALLS     CLOUDY    60  57  89 VRB7      29.61S
WASKISH        LGT RAIN  61  57  88 CALM      29.61F
BIG FORK       RAIN      61  57  88 SW16G24   29.65R
LONGVILLE      CLOUDY    61  57  88 S12G18    29.69S FOG
GRAND RAPIDS   CLOUDY    59  54  82 S13       29.69S
CRANE LAKE     CLOUDY    61  55  82 S8        29.65R
ORR            RAIN      59  54  82 S12G21    29.62R
COOK           RAIN      57  55  94 S13G22    29.67R
WALKER         CLOUDY    61  57  88 SW17G23   29.68R
$$
MNZ012-019>021-037-191800-
   Northeast Minnesota

CITY           SKY/WX    TMP DP  RH WIND       PRES   REMARKS
DULUTH         CLOUDY    62  53  72 SW20G29   29.73R
ELY            LGT RAIN  57  54  88 S13G23    29.68R
HIBBING        CLOUDY    60  55  83 SW10G21   29.70S
EVELETH        DRIZZLE   57  54  88 S13G20    29.71F
DULUTH HARBOR  CLOUDY    64  55  72 SW17      29.73R
TWO HARBORS    CLOUDY    59  52  77 SW10      29.73R
SILVER BAY     CLOUDY    57  54  88 S8        29.69F
GRAND MARAIS     N/A     56  51  84 SW5       29.73F
G MARAIS ARPRT CLOUDY    54  48  82 S9        29.73F
$$
MNZ029>031-032-039>041-046>048-054>057-064-191800-
   West Central Minnesota

CITY           SKY/WX    TMP DP  RH WIND       PRES   REMARKS
FERGUS FALLS   CLOUDY    64  57  77 S14       29.67S
WHEATON        CLOUDY    63  59  88 SE13      29.66F
MORRIS         CLOUDY    66  63  88 S9        29.69S FOG
ALEXANDRIA     CLOUDY    62  60  93 S15       29.71F FOG
ELBOW LAKE     CLOUDY    63  60  91 S12       29.69S
WADENA         CLOUDY    63  57  82 S15       29.68R
GLENWOOD       PTSUNNY   63  61  94 S12       29.72F FOG
APPLETON       CLOUDY    68  63  83 S9        29.69S
BENSON         CLOUDY    66  61  82 S8        29.70F
ORTONVILLE     CLOUDY    66  61  82 S5        29.67F
MADISON        CLOUDY    70  63  78 S6        29.69S
WILLMAR        CLOUDY    66  61  82 SW5       29.73F
$$
MNZ033>034-036-042>043-049>051-058-059-191800-
   Central Minnesota

CITY           SKY/WX    TMP DP  RH WIND       PRES   REMARKS
ST CLOUD       CLOUDY    65  58  78 S16       29.74S
SAUK CENTRE    CLOUDY    61  60  95 SE9       29.73S FOG
PAYNESVILLE    CLOUDY    60  59  96 SE7       29.74F FOG
AITKIN         CLOUDY    63  57  82 SW9       29.73S
PINE RIVER     LGT RAIN  59  57  94 S12G21    29.70F
BRAINERD       CLOUDY    59  57  93 SW10      29.76R FOG
STAPLES        DRIZZLE   61  57  88 S9        29.68F
LONG PRAIRIE   DRIZZLE   59  59 100 S10       29.74R
LITTLE FALLS   CLOUDY    61  55  82 S6        29.77R FOG
LITCHFIELD     CLOUDY    63  63 100 S5        29.76F FOG
BUFFALO        CLOUDY    66  57  74 S12G18    29.76R
MAPLE LAKE     CLOUDY    65  60  83 S10G22    29.76S
$$
MNZ037-044-045-052-053-191800-
   East Central Minnesota

CITY           SKY/WX    TMP DP  RH WIND       PRES   REMARKS
PRINCETON      CLOUDY    66  57  72 S12G18    29.76R
MORA           CLOUDY    63  55  77 SW13      29.77R
CAMBRIDGE      CLOUDY    70  55  60 S12G21    29.73R
RUSH CITY      CLOUDY    66  56  68 S17G25    29.76S
MOOSE LAKE     CLOUDY    61  54  77 SW12      29.73R
HINCKLEY       CLOUDY    63  55  77 S20G28    29.75S
CLOQUET        CLOUDY    61  54  77 SW13G18   29.75R
MCGREGOR       CLOUDY    61  55  82 S13G20    29.76S
$$
MNZ071>073-080-081-089-090-097-098-191800-
   Southwest Minnesota

CITY           SKY/WX    TMP DP  RH WIND       PRES   REMARKS
MONTEVIDEO     CLOUDY    66  63  88 W8        29.73R
GRANITE FALLS  CLOUDY    68  62  81 S12G18    29.72F
CANBY          CLOUDY    68  63  82 SW5       29.71R
MARSHALL       CLOUDY    70  61  73 SW17G23   29.69S
REDWOOD FALLS  CLOUDY    69  62  78 S16G28    29.71F
OLIVIA         CLOUDY    68  61  77 S9G16     29.72F
PIPESTONE      PTSUNNY   72  63  73 SW23      29.71F
WINDOM         CLOUDY    70  61  73 S18G31    29.74F
WORTHINGTON    PTSUNNY   70  63  78 S22G31    29.76F
JACKSON        PTSUNNY   72  61  68 S22G28    29.78F
TRACY          MOSUNNY   71  63  76 S30G38    29.67F
SLAYTON        PTSUNNY   69  63  81 S22G32    29.71F
$$
MNZ065>067-074>077-082>085-091>093-191800-
   South Central Minnesota

CITY           SKY/WX    TMP DP  RH WIND       PRES   REMARKS
MANKATO        CLOUDY    72  57  60 S18G35    29.77F
NEW ULM        MOSUNNY   66  63  88 S20G30    29.74F
ST JAMES       CLOUDY    68  61  77 S20G29    29.77F
FAIRMONT       PTSUNNY   72  54  53 S26G33    29.79F
GLENCOE        CLOUDY    67  58  72 S14G25    29.76R
FARIBAULT      MOSUNNY   73  55  53 S22G32    29.79F
OWATONNA       MOSUNNY   72  57  60 S21G30    29.81F
WASECA         MOSUNNY   72  54  53 S24G32    29.81F
ALBERT LEA     MOSUNNY   72  57  60 S22G30    29.84F
$$
MNZ078>079-086>088-094>096-191800-
   Southeast Minnesota

CITY           SKY/WX    TMP DP  RH WIND       PRES   REMARKS
ROCHESTER      MOSUNNY   69  56  62 S22G36    29.89F
RED WING       CLOUDY    70  55  60 S12       29.83F
STANTON        PTSUNNY   73  58  60 S22G32    29.79F
DODGE CENTER   MOSUNNY   70  57  64 S26G35    29.86F
WINONA         PTSUNNY   70  55  60 S6G17     29.91F
AUSTIN         PTSUNNY   68  57  68 S23       29.88F
PRESTON        MOSUNNY   68  59  73 S24G33    29.93F
$$
ABBREVIATIONS USED IN REMARKS
   TC - TEMPERATURES IN CELSIUS
  WCI - WIND CHILL INDEX
   HX - HEAT INDEX
  VSB - VISIBILITY
$$



USA.gov is the U.S. government's official web portal to all federal, state and local government web resources and services.